Zurück zum Katalog

FENGYUN 1C DEB

AktivPO
NORAD 30821·DEBRIS·🇨🇳 China

Gestartet May 10, 1999 von Taiyuan Satellite Launch Center

Loading…

Nächste Überflüge (nächste 24 Stunden)

TLE

AktuellSource: Space-Track

Epoche: Sep 13, 2026, 23:00 UTC

1 30821U 99025AVF 26256.95871168  .00001387  00000-0  34812-3 0  9995
2 30821  99.1347  67.2352 0086063 102.8767  48.3230 14.50927974 27780

Verfolge FENGYUN 1C DEB in Echtzeit mit AllMySat

Download on the App Store